Flag for Belgium Weather past 2 weeks in Mons, Belgium

Now
41 °F

Quite cool.


Feels Like: 36 °F
Forecast: 40 / 62 °F
Wind: 7 mph from Northeast

Location: Chievres

Current Time: Apr 21, 2015 at 7:42:43 AM

Latest Report: Apr 21, 2015 at 6:25 AM


Visibility: N/A

Pressure: 30.42 "Hg

Humidity: 87%

Dew point: 37 °F

Location of MonsLocation

Historic Weather in Mons — Graph

°F

Mons temperature yesterday

Maximum temperature yesterday: 66 °F (at 5:25 PM)
Minimum temperature yesterday: 37 °F (at 6:25 AM)
Average temperature yesterday: 52 °F

Past Weeks' High & Low Weather Summary

 TemperatureHumidityPressure
High77 °F (Apr 15, 4:25 PM)100% (Apr 6, 6:25 AM)30.66 "Hg (Apr 6, 6:25 AM)
Low30 °F (Apr 6, 6:25 AM)27% (Apr 10, 4:03 PM)29.89 "Hg (Apr 16, 6:25 PM)
Average50 °F72%30.26 "Hg
* Reported Apr 6 6:25 AM — Apr 21 6:25 AM, Mons, Weather by CustomWeather, © 2015

Note: Actual official high and low records may vary slightly from our data, if they occured in-between our weather recording intervals... More about our weather records

Advertising

Mons weather history for previous 24 hours

 ConditionsComfort  
Time TempWeatherWind HumidityBarometerVisibility
6:25 AM
Tue, Apr 21
41 °FQuite cool.7 mph87%30.42 "HgN/A
5:47 AM41 °FQuite cool.6 mph87%30.42 "Hg6 mi
5:25 AM43 °FQuite cool.7 mph87%30.42 "HgN/A
5:03 AM43 °FQuite cool.5 mph87%30.42 "HgN/A
4:25 AM41 °FQuite cool.2 mph93%30.42 "Hg4 mi
3:55 AM43 °FQuite cool.2 mph87%30.42 "Hg4 mi
3:25 AM43 °FQuite cool.6 mph87%30.42 "Hg6 mi
2:25 AM45 °FQuite cool.6 mph87%30.42 "HgN/A
1:25 AM45 °FQuite cool.6 mph87%30.39 "HgN/A
12:25 AM46 °FCool.7 mph82%30.39 "HgN/A
11:25 PM
Mon, Apr 20
46 °FCool.7 mph87%30.39 "HgN/A
9:25 PM54 °FCool.10 mph63%30.36 "HgN/A
8:25 PM57 °FRefreshingly cool.8 mph48%30.36 "HgN/A
7:25 PM63 °FMild.12 mph39%30.33 "HgN/A
6:25 PM64 °FMild.13 mph34%30.33 "HgN/A
5:25 PM66 °FMild.12 mph37%30.33 "HgN/A
4:25 PM64 °FMild.12 mph37%30.33 "HgN/A
3:25 PM64 °FPassing clouds.12 mph37%30.33 "HgN/A
2:25 PM63 °FPassing clouds.9 mph42%30.36 "HgN/A
1:25 PM63 °FPassing clouds.10 mph42%30.36 "HgN/A
12:25 PM61 °FPassing clouds.12 mph52%30.36 "HgN/A
11:25 AM57 °FPassing clouds.9 mph59%30.36 "HgN/A
10:25 AM54 °FCool.6 mph67%30.33 "HgN/A
9:25 AM48 °FCool.6 mph76%30.33 "HgN/A
8:25 AM45 °FQuite cool.6 mph81%30.30 "HgN/A
7:25 AM39 °FChilly.5 mph87%30.27 "HgN/A
Weather by CustomWeather, © 2015

See weather overviewHow to use our weather pages